Wind_Speed
22 22 22 22 22 23 23 23 22 22 22 22 22 22 22 22 21 21 22 22 20 19 19 19 18 18 17 16 17 18 19 21 19 20 26 19 12 12 13 16 14 11 17 17 12 14 17 19 20 19 19 18 17 17 16 15 14 10 5 2 2 3 4 6 7 9 9 7 4 4 4 5 8 10 15 14 16 18 15 14 12 16 20 24 28 31 33 32
22 22 23 23 23 24 24 24 24 24 24 24 24 24 24 23 22 21 21 22 22 19 18 18 17 17 16 14 16 17 18 20 20 27 29 16 12 15 13 17 18 12 16 21 17 18 20 20 20 20 20 18 16 16 15 14 13 9 4 2 3 4 3 3 8 14 12 12 10 3 4 3 6 9 14 11 11 15 13 15 15 20 25 27 32 33 32 33
22 22 22 22 23 23 24 25 25 25 25 25 25 25 25 25 24 22 21 21 22 20 18 17 16 16 15 13 14 15 16 17 22 32 30 19 19 19 13 15 20 16 17 21 19 19 20 18 19 20 20 17 15 16 14 12 11 10 7 3 5 7 5 4 9 16 20 22 17 2 5 3 7 6 11 11 11 12 8 13 16 20 28 30 33 33 33 33
22 22 22 22 23 23 24 25 25 25 25 25 25 26 26 26 25 23 21 21 21 21 19 16 15 14 13 13 12 11 12 14 18 23 20 16 17 16 14 12 15 18 17 18 19 19 18 17 18 20 19 15 16 17 14 12 10 8 8 6 7 11 5 4 9 15 24 25 19 5 6 2 5 7 10 13 11 8 5 10 16 20 28 31 32 33 33 32
23 23 23 23 23 24 24 25 25 26 26 26 26 26 27 26 26 24 22 20 20 21 20 17 14 12 12 12 10 6 6 7 4 5 9 12 14 17 18 14 14 16 16 17 19 19 19 19 19 20 18 13 14 14 13 16 13 7 8 9 9 13 6 3 5 14 27 21 12 8 12 5 6 7 9 13 10 9 11 12 18 23 27 32 33 33 31 32
24 24 24 24 25 25 25 25 26 26 26 26 26 27 27 26 26 25 23 21 19 20 19 17 13 10 11 10 10 5 5 5 4 4 2 4 8 15 19 18 17 16 16 18 21 20 21 22 20 20 17 12 14 13 13 17 16 8 9 12 11 15 10 10 11 12 27 19 7 2 10 15 7 6 6 11 11 15 19 17 22 25 26 30 32 32 31 32
24 24 25 25 25 25 26 26 26 27 27 27 27 27 27 27 26 24 23 22 20 19 18 17 12 10 10 9 11 9 13 17 7 2 4 2 3 10 16 20 21 20 19 20 23 23 22 23 22 20 15 12 14 15 15 16 17 12 9 12 11 13 12 15 17 14 21 17 6 5 12 12 2 4 3 15 20 19 21 20 25 26 27 28 29 30 30 31
25 25 25 26 26 26 26 26 27 27 27 27 27 27 27 26 26 25 24 22 20 19 17 16 11 10 10 10 11 9 20 26 14 12 12 8 4 7 11 19 24 23 23 24 25 24 23 24 24 21 14 12 15 15 16 15 14 14 11 12 10 10 12 13 15 14 14 12 7 7 8 4 4 5 5 17 24 20 20 23 27 27 27 28 27 28 29 30
26 26 26 26 27 27 27 27 27 27 28 28 28 27 27 26 25 24 23 22 19 18 16 13 11 10 10 12 11 11 22 23 13 15 16 12 10 9 7 14 25 28 26 25 25 24 23 23 24 22 16 15 17 15 17 14 10 13 14 14 13 11 12 11 13 13 10 9 9 9 8 5 5 7 5 14 21 19 20 23 27 28 28 28 27 28 29 29
26 26 26 27 27 28 28 28 28 28 28 28 28 28 27 26 25 24 23 21 19 18 15 11 10 9 10 12 11 11 16 13 10 17 17 13 14 15 12 10 21 30 27 25 26 25 24 22 22 23 18 16 17 16 18 15 10 13 14 14 16 15 14 12 13 13 8 9 11 11 7 6 7 7 5 12 19 19 21 24 26 26 27 28 27 28 28 28
27 27 27 27 27 28 28 28 28 28 28 28 29 28 27 26 24 23 21 20 18 17 14 11 9 9 10 11 15 14 9 4 6 14 14 14 15 19 18 12 17 28 27 24 26 25 24 22 20 20 17 14 16 16 18 18 15 15 13 11 15 17 17 15 14 12 9 10 14 13 9 8 9 7 6 14 20 20 23 25 25 24 25 26 26 27 27 27
28 28 28 27 28 28 28 29 29 29 29 29 29 28 27 25 24 23 21 20 19 16 14 10 8 10 9 13 25 23 9 3 5 10 13 15 16 17 19 16 17 24 26 24 24 24 24 22 21 19 16 13 14 13 14 19 20 18 14 11 12 14 15 16 16 13 11 10 12 11 9 10 11 9 8 16 18 20 26 24 23 24 24 25 26 27 27 27
28 28 28 28 28 29 29 29 29 29 29 29 29 28 27 24 22 22 20 19 18 16 13 9 9 10 10 16 28 23 10 9 9 10 12 14 17 17 18 18 18 21 23 23 22 22 23 22 22 22 20 16 13 12 12 14 17 17 13 10 10 10 11 14 16 16 14 10 12 11 7 8 11 11 11 17 19 20 25 24 23 24 24 25 25 26 28 28
29 29 29 28 28 29 29 29 29 29 29 29 28 28 25 23 21 19 19 18 16 14 10 8 8 7 12 19 23 15 11 14 16 17 14 13 18 19 20 19 19 21 21 22 21 20 22 22 22 22 21 20 17 16 15 11 10 12 11 9 9 8 8 11 14 16 14 12 17 14 7 7 9 13 14 17 21 21 21 22 22 22 24 25 24 25 26 28
29 29 29 28 28 29 29 30 30 30 30 29 28 26 24 21 19 17 18 18 15 11 7 5 5 6 12 23 24 14 15 19 22 23 19 15 17 20 22 21 21 22 21 21 20 19 20 21 23 21 19 21 20 16 13 10 9 9 10 10 10 9 8 12 15 16 14 12 18 15 8 5 5 9 18 19 20 21 19 20 21 21 23 25 24 24 25 26
28 29 29 29 29 28 30 30 30 30 30 30 29 24 20 19 18 18 18 15 12 9 4 2 3 4 9 14 14 9 17 25 24 23 23 20 19 20 21 21 21 22 21 21 20 19 19 21 23 22 19 17 15 12 9 10 9 9 10 9 10 10 9 11 13 17 17 13 16 15 10 5 3 4 17 20 19 19 19 20 20 19 19 21 24 24 24 26
30 30 29 29 28 28 29 29 30 30 29 30 28 21 16 17 20 19 14 10 7 4 4 3 3 7 14 12 8 10 19 25 23 21 25 24 21 20 20 22 23 22 21 21 20 20 20 21 19 17 17 14 11 11 10 10 10 9 10 9 11 12 10 11 10 13 18 15 15 16 12 8 5 4 10 17 19 18 17 18 18 18 19 20 22 23 24 26
32 32 32 31 29 28 28 29 29 28 27 27 25 19 15 18 23 17 8 7 8 3 4 6 6 7 13 15 15 14 14 19 23 21 23 24 23 22 21 22 22 22 22 19 21 22 20 19 16 11 12 13 12 12 12 12 12 10 10 9 10 12 13 14 10 10 16 16 15 15 14 9 8 9 11 14 18 18 18 20 18 18 19 21 22 21 22 26
33 34 34 33 32 30 29 29 28 26 25 23 23 20 15 21 23 11 5 5 6 4 6 7 14 8 10 13 16 15 11 12 21 21 23 25 24 22 21 21 21 23 21 15 18 23 18 14 14 12 12 14 15 16 15 15 14 13 13 12 11 11 13 14 11 10 13 15 14 14 14 11 11 13 14 15 18 18 20 23 21 19 18 19 20 20 23 25
33 34 34 34 33 31 30 28 26 25 24 21 25 22 17 22 18 6 7 14 18 18 22 19 19 22 24 24 17 11 9 9 17 22 24 26 24 24 23 22 22 21 19 14 15 21 18 11 13 15 15 18 19 20 19 18 18 17 15 14 14 13 12 13 12 11 12 12 13 15 15 13 16 16 15 18 20 17 18 22 26 25 23 22 21 20 22 24
33 33 33 34 33 31 29 27 23 24 24 21 22 20 18 21 14 11 21 26 26 23 29 33 29 31 33 33 27 15 9 10 17 21 23 26 26 23 23 23 19 15 17 17 14 17 17 13 16 20 19 20 21 21 21 19 20 19 16 14 14 12 12 14 12 11 13 11 11 15 15 15 16 16 17 19 17 14 16 17 26 31 28 26 25 23 22 22
33 33 32 33 32 30 28 24 21 23 23 21 18 16 16 18 14 15 22 24 29 29 29 33 34 36 37 37 36 27 19 15 18 22 23 28 28 22 22 22 17 13 16 18 13 13 14 16 20 22 20 20 20 20 22 22 20 17 15 13 12 11 12 13 14 13 12 8 9 14 15 14 14 15 16 17 15 15 19 18 22 33 31 27 26 24 23 23
33 33 32 32 31 31 26 20 20 23 22 19 15 15 18 19 17 18 19 19 29 33 28 32 34 37 37 35 35 29 23 19 18 23 27 29 30 27 22 19 17 16 17 17 16 13 13 16 20 20 19 21 21 21 22 20 17 14 14 12 11 13 12 10 13 17 14 10 9 12 13 12 14 14 13 17 18 18 22 22 19 29 34 30 28 28 27 26
32 33 32 32 31 32 26 16 17 22 18 14 13 16 21 21 18 20 21 18 21 26 29 34 34 35 36 33 30 29 25 22 20 23 30 31 31 28 21 20 19 17 17 21 22 19 15 14 17 20 21 22 22 21 21 16 13 15 16 15 13 14 14 11 9 15 15 14 13 12 10 9 12 14 13 15 17 18 21 22 19 21 31 34 31 30 29 28
33 33 32 32 30 32 26 13 13 19 15 12 15 19 22 21 19 20 19 14 13 18 25 26 26 31 34 28 25 27 24 23 24 23 29 35 32 24 19 21 18 16 20 24 23 19 18 17 17 21 22 23 22 19 20 16 11 15 18 19 18 16 16 16 13 12 10 11 14 13 10 7 11 15 14 13 14 16 18 18 18 18 24 33 31 28 28 28
32 32 32 31 28 31 26 14 14 18 14 13 18 21 22 20 19 20 14 9 9 11 12 14 15 18 25 25 25 25 19 21 28 26 27 35 34 25 17 16 15 16 20 20 15 11 14 18 19 20 21 23 22 18 20 19 12 11 15 20 22 20 17 17 17 13 8 8 13 14 10 7 9 13 14 14 14 16 17 15 18 18 21 30 30 28 29 29
31 31 32 29 25 25 23 17 17 17 14 16 20 22 23 20 19 19 10 6 6 3 7 11 9 7 15 24 28 23 11 13 25 30 30 33 35 29 19 15 14 15 16 13 11 10 14 21 21 20 21 20 18 16 18 20 14 10 13 18 22 21 19 18 17 14 9 9 13 16 13 8 8 12 14 17 17 16 17 15 17 20 24 30 29 28 29 29
29 29 30 28 23 17 18 20 18 14 15 19 23 23 22 21 20 15 6 5 4 4 8 4 3 2 7 19 31 26 11 9 17 27 33 33 35 30 20 19 17 16 18 14 12 13 16 22 22 21 20 14 15 16 18 20 16 12 14 15 17 20 20 18 15 12 10 10 10 14 16 10 8 10 13 18 20 18 19 18 16 19 26 30 28 28 30 30
28 28 28 27 23 15 14 17 15 14 18 21 23 23 22 22 18 9 4 6 7 3 3 2 2 2 5 13 26 27 18 12 11 21 33 33 35 31 18 20 20 17 22 20 15 13 15 20 22 20 16 13 15 18 19 20 16 13 16 15 13 16 18 17 14 11 10 11 10 13 16 11 8 10 11 14 16 17 17 16 15 19 26 30 30 30 31 31
26 25 25 26 24 18 13 11 13 15 20 23 23 24 24 19 11 6 6 6 5 6 3 3 4 2 7 11 17 20 19 17 10 19 31 30 35 33 22 23 23 16 18 20 18 16 16 20 21 18 15 13 15 17 18 20 17 15 15 13 12 12 12 12 12 10 10 10 12 16 16 11 8 8 11 12 14 16 15 14 15 19 24 28 30 31 32 31
25 23 22 21 19 18 13 11 15 19 20 22 23 24 20 12 6 7 6 4 6 10 9 6 11 11 5 8 12 16 17 17 14 14 22 21 26 27 19 18 18 14 13 15 17 18 19 18 16 16 20 18 15 16 17 19 19 15 12 11 10 8 7 8 9 10 11 10 12 17 18 14 10 8 9 11 14 17 15 15 19 20 23 26 27 29 33 32
23 21 18 16 16 16 12 13 18 22 21 21 22 20 13 7 6 8 7 7 6 8 13 14 18 20 16 14 10 16 16 14 17 15 16 16 16 18 17 14 12 13 14 13 14 16 18 18 15 17 22 22 16 13 14 16 16 14 11 11 10 8 8 9 8 9 10 9 10 16 18 15 12 10 12 12 12 16 15 15 18 19 23 27 26 28 34 33
23 19 12 12 16 13 9 13 19 20 20 20 19 14 8 6 7 8 11 10 6 12 16 17 21 22 19 16 11 13 15 15 17 17 15 17 16 16 21 21 18 15 12 12 13 13 13 17 20 18 18 22 19 12 11 13 14 14 12 11 10 9 9 9 8 8 9 9 11 16 16 14 12 10 15 18 12 13 16 19 21 21 25 28 26 28 32 34
22 14 8 11 15 10 9 15 19 18 18 18 14 10 7 7 8 10 11 9 13 17 18 19 22 23 18 13 10 10 11 13 17 18 15 17 16 14 18 23 25 19 11 11 12 12 13 13 19 20 13 18 22 16 13 13 13 14 13 11 11 10 8 8 8 8 8 8 12 16 13 11 10 8 13 18 16 16 17 19 24 25 27 29 29 30 30 35
18 10 10 14 12 8 12 17 17 15 16 14 10 7 7 7 6 6 9 12 15 16 20 22 19 18 16 12 11 12 11 9 15 17 14 14 14 14 15 18 24 21 13 12 10 12 16 12 16 21 16 18 22 18 16 15 12 12 13 12 12 10 8 7 8 10 10 8 9 11 10 8 8 8 11 14 17 20 19 18 20 23 30 31 29 32 30 33
15 9 12 12 8 8 14 17 15 13 12 10 6 5 6 7 7 9 12 15 15 16 21 19 12 11 12 10 9 10 9 9 13 14 11 14 16 17 16 15 21 24 17 12 8 9 14 12 15 22 21 20 21 20 19 16 10 10 12 13 12 12 10 7 8 11 11 10 8 8 9 9 8 10 12 12 12 15 18 19 18 18 30 34 31 34 33 31
16 14 14 9 7 12 17 15 12 11 10 6 4 5 7 10 13 13 13 16 18 17 17 12 9 10 11 9 9 9 15 15 11 11 12 14 13 17 19 15 20 26 23 17 11 9 11 10 14 22 23 22 21 22 22 19 12 9 11 13 11 12 12 7 6 7 9 9 7 9 12 11 9 8 10 14 14 12 15 18 19 18 23 29 31 37 38 33
20 22 16 7 8 15 16 13 11 12 10 5 4 5 6 9 14 15 15 16 17 15 13 10 9 12 13 12 13 17 20 15 13 12 10 13 11 15 19 16 18 25 28 24 13 10 11 9 12 22 23 20 19 19 18 20 20 14 11 13 11 10 10 8 7 7 8 8 6 10 13 11 10 9 10 15 16 15 15 15 18 20 18 21 28 38 40 35
21 23 11 4 10 15 13 13 13 12 9 5 4 5 5 7 11 14 16 17 14 12 11 11 11 12 14 14 14 17 17 14 14 14 8 9 7 6 3 5 9 16 26 28 17 10 11 9 9 18 23 19 15 14 14 15 19 17 12 13 11 9 9 9 8 7 7 7 6 8 9 7 8 8 11 14 14 15 14 13 14 18 18 18 23 34 38 34
20 17 5 10 14 15 15 16 13 9 6 5 5 6 7 8 9 13 15 14 12 9 9 11 13 13 13 15 15 14 14 16 16 12 10 9 5 8 13 13 9 9 10 18 20 15 11 10 9 13 21 20 13 13 16 15 16 15 13 12 11 9 8 9 9 8 7 6 5 6 7 7 8 8 12 14 13 15 14 11 11 14 20 21 21 31 37 34
18 13 8 15 16 16 19 16 8 4 5 5 5 7 8 8 10 12 12 12 11 10 11 12 13 13 13 13 13 13 13 13 14 12 10 12 12 9 13 16 14 12 11 9 14 16 10 9 11 10 13 17 15 16 20 20 19 16 12 12 12 11 10 9 9 10 8 7 5 5 5 4 3 5 10 11 11 13 13 12 10 12 20 25 24 29 37 36
17 10 12 15 13 17 19 12 4 3 5 5 7 9 9 9 10 11 11 12 11 10 11 11 11 13 12 10 10 12 12 12 13 13 11 14 16 13 15 22 20 14 10 8 8 14 12 8 10 11 11 15 20 20 21 22 22 19 15 13 12 12 11 9 8 9 9 9 8 7 5 1 4 2 4 8 9 12 13 11 10 13 20 24 28 29 35 40
16 16 19 12 10 17 15 7 5 5 6 9 10 11 11 10 10 10 11 11 10 9 9 9 11 12 11 10 10 11 12 12 10 10 13 15 15 18 22 23 20 16 10 6 5 9 10 8 9 10 10 12 19 20 20 21 20 17 16 15 13 13 13 11 8 7 8 10 9 7 6 2 5 2 2 6 6 11 14 13 13 15 17 19 27 28 32 40
21 25 23 11 13 15 11 5 7 6 7 11 11 11 10 9 9 10 10 11 10 9 9 8 11 12 11 11 11 10 11 10 8 10 14 13 16 26 29 27 21 15 8 7 7 5 4 7 10 9 7 9 16 16 15 18 17 13 14 17 18 17 18 14 10 7 7 10 11 8 6 4 6 4 4 6 3 7 12 13 15 16 15 16 21 26 33 41
21 21 18 15 16 13 8 6 8 7 9 11 11 11 10 8 8 10 11 12 11 11 10 11 14 14 13 11 11 10 9 9 9 11 12 11 16 24 28 34 30 17 9 14 14 10 6 6 8 8 9 11 14 13 12 14 13 12 15 21 23 22 21 15 9 8 7 8 11 9 6 5 9 8 6 7 8 8 10 12 13 13 8 4 12 22 30 37
17 12 11 15 17 12 7 9 10 8 8 10 9 10 10 9 9 11 11 10 10 12 12 13 15 15 12 12 12 10 9 10 9 8 10 11 12 17 27 38 34 22 21 22 16 10 6 7 9 10 12 9 4 6 10 14 15 16 19 23 25 24 22 15 9 8 8 7 9 8 5 8 12 10 7 8 8 7 11 13 10 16 20 17 21 24 23 26
13 9 9 12 13 11 9 11 12 9 9 10 8 9 11 10 9 9 9 7 9 12 11 11 12 12 12 13 12 10 10 11 9 9 11 12 11 17 29 34 28 27 34 23 13 7 5 8 11 15 16 11 4 2 1 8 15 21 23 22 24 26 24 18 13 11 9 7 8 8 8 10 12 11 10 10 7 5 10 13 12 19 20 16 19 23 21 20
10 12 16 14 10 9 10 12 15 13 12 11 8 9 12 10 8 9 8 8 10 8 5 7 10 12 14 15 11 9 10 9 8 8 9 10 13 16 22 24 23 27 32 18 9 5 5 8 11 16 17 15 13 7 6 8 7 14 23 24 24 26 27 22 16 15 12 7 7 9 9 9 10 11 11 11 9 6 8 12 16 20 18 14 16 20 20 18
13 12 15 16 13 13 16 18 19 16 13 11 9 8 10 10 10 9 8 9 9 6 4 8 12 12 15 15 10 8 8 7 6 7 7 10 13 12 12 16 19 26 28 16 7 7 3 6 11 15 17 16 16 14 10 7 11 10 18 24 22 24 27 23 19 18 15 9 8 10 8 5 9 11 10 10 12 12 12 12 16 18 14 11 12 16 20 19
14 12 13 16 15 16 19 19 17 13 10 9 9 7 8 11 11 10 9 8 9 8 7 10 13 14 16 16 12 8 7 7 7 7 8 9 10 8 7 8 13 21 24 15 9 10 6 5 8 10 12 14 15 15 12 9 11 14 14 22 24 22 25 24 20 18 16 12 12 12 10 6 8 10 11 10 12 12 12 11 12 12 12 13 12 11 17 24
15 16 15 14 10 10 14 15 13 11 8 6 7 7 8 10 11 12 11 7 5 9 12 13 13 13 15 16 14 10 9 9 10 11 11 11 10 8 8 9 14 18 18 15 13 11 8 6 7 7 7 9 12 16 15 11 12 15 15 18 25 21 20 21 18 17 14 13 14 13 11 8 7 11 13 11 8 8 8 7 8 9 10 8 8 6 8 15
18 20 17 13 8 7 11 11 11 10 8 6 8 11 11 12 12 11 8 4 4 9 11 14 15 12 11 14 14 13 13 12 13 14 14 14 15 14 14 18 21 17 13 13 12 9 9 8 5 6 7 8 12 15 14 10 11 10 11 13 18 16 16 18 18 18 17 15 13 10 8 7 7 10 14 12 9 7 5 4 5 8 8 4 3 4 3 2
Wind_Direction
359 357 355 352 349 346 343 341 338 336 333 330 326 322 318 314 312 311 309 306 305 304 302 303 302 301 300 301 297 293 291 286 284 277 268 266 268 262 242 232 230 227 223 219 207 198 200 203 207 207 208 215 220 228 232 227 226 225 230 237 281 275 274 309 321 305 303 333 325 146 122 128 129 124 123 124 123 129 138 124 129 137 134 140 141 146 148 150
359 358 355 352 350 347 345 342 340 339 336 334 330 325 321 317 316 314 312 309 306 304 302 302 302 301 300 300 295 296 293 289 290 274 257 249 259 261 245 229 223 214 212 209 202 199 202 204 204 205 209 217 218 221 230 227 220 220 229 203 216 246 255 293 297 299 312 320 305 145 139 137 128 135 126 126 122 124 127 108 105 117 127 135 140 148 150 152
358 356 353 350 349 345 344 341 339 338 336 335 331 327 323 320 320 317 315 311 308 306 303 301 301 300 298 297 295 297 299 300 291 273 261 252 253 251 238 220 213 209 210 205 201 203 205 206 204 204 210 220 221 217 224 222 219 216 216 220 203 226 263 294 302 311 310 301 294 193 150 147 135 144 131 129 102 96 111 116 119 123 131 139 144 150 152 155
358 356 353 350 348 345 343 340 338 336 334 333 330 328 324 323 323 320 317 312 310 308 304 301 299 296 294 292 292 299 308 307 286 272 269 255 235 223 210 199 203 208 210 202 202 208 209 210 205 207 211 221 226 221 224 219 216 207 210 230 184 195 227 297 312 301 282 274 277 306 62 15 164 140 135 137 109 93 145 135 135 138 140 144 147 153 154 157
359 357 355 353 351 348 345 342 339 336 334 331 328 325 323 324 324 324 321 314 310 307 305 301 296 292 285 282 283 293 307 304 288 254 257 246 222 211 211 209 209 208 207 203 208 213 211 213 208 209 214 224 229 224 227 221 220 219 228 243 175 174 189 227 268 277 270 258 267 358 59 292 255 129 133 142 134 133 151 148 141 143 145 148 150 155 156 158
359 357 355 354 352 349 347 344 341 338 336 332 328 324 322 323 323 325 323 317 311 306 305 300 295 286 270 270 271 246 238 264 63 54 280 248 224 214 214 213 209 206 208 206 212 215 209 213 209 209 214 223 233 226 225 219 221 232 236 244 197 180 183 180 188 245 265 250 208 96 154 218 237 119 127 119 125 131 138 145 142 145 149 150 152 157 160 162
358 357 355 353 351 349 347 344 342 341 339 335 330 325 322 322 321 323 323 319 313 306 306 300 295 277 257 255 257 229 231 246 231 275 310 354 234 207 204 204 201 199 203 207 213 213 207 211 210 210 214 219 233 232 231 223 220 231 239 250 223 199 199 192 193 214 250 250 206 201 198 213 139 113 139 113 123 137 145 147 143 147 149 151 154 160 164 165
357 356 355 353 350 348 346 343 343 342 341 338 334 328 323 322 320 321 322 320 315 310 306 300 294 270 250 235 245 236 239 248 240 241 266 290 250 186 186 194 196 193 196 206 213 212 207 210 210 210 216 219 229 231 234 231 224 229 236 253 249 229 226 213 219 221 234 257 261 249 233 228 130 164 185 134 133 138 145 147 145 148 151 156 160 163 167 168
356 356 354 352 349 347 345 343 343 342 341 338 335 332 327 324 321 320 320 320 318 313 307 301 290 265 248 230 236 248 248 259 270 244 245 267 248 204 197 195 193 189 193 206 211 213 210 211 212 211 220 225 230 235 233 231 225 230 231 241 249 243 235 219 230 236 237 251 258 260 251 243 180 170 175 145 139 136 144 149 148 150 155 159 164 167 168 169
355 355 354 352 349 346 345 343 343 342 340 337 336 334 330 326 322 320 319 319 318 313 308 299 285 263 251 232 226 249 257 268 265 235 229 244 244 225 224 213 196 189 193 208 212 214 212 213 215 215 226 233 235 241 238 234 228 232 234 241 248 252 248 235 230 226 228 242 245 256 251 247 223 187 172 150 146 143 145 149 150 153 159 161 165 168 167 170
354 354 354 352 349 346 345 343 343 342 340 338 336 333 330 327 323 321 318 318 317 313 307 295 284 266 251 228 226 239 252 269 222 214 215 219 227 227 222 212 201 193 194 208 213 214 215 216 218 217 225 236 242 246 244 245 246 239 236 244 249 252 252 247 242 219 205 226 234 247 255 248 231 202 174 154 153 148 144 150 157 160 162 163 166 167 169 172
352 353 352 352 350 346 345 344 344 342 340 339 337 334 332 328 324 321 318 316 314 311 304 290 280 264 241 227 235 234 218 225 218 199 204 204 214 228 219 204 201 199 199 210 215 214 216 218 220 223 223 230 241 248 245 241 247 246 234 240 246 248 247 240 242 229 214 220 221 234 247 239 225 209 173 155 158 155 150 156 163 161 162 166 166 166 172 175
351 351 351 352 350 346 345 345 344 343 341 340 338 337 334 330 326 321 318 316 313 310 301 285 279 259 227 234 245 244 221 211 219 221 219 210 214 221 215 204 202 204 205 213 217 214 217 220 223 228 230 233 237 245 253 242 244 247 234 237 246 245 244 233 234 229 222 224 220 222 234 233 220 206 179 161 165 160 153 158 164 164 164 169 168 167 173 176
350 350 350 351 350 346 345 345 345 344 343 342 340 338 336 333 329 324 320 315 312 309 300 286 280 239 218 247 259 256 234 226 228 229 224 215 214 211 209 208 207 209 210 217 221 217 218 221 227 233 234 237 243 247 256 254 245 247 234 232 242 245 247 234 230 225 217 213 215 223 235 230 214 196 177 162 165 163 157 157 161 166 166 169 172 172 175 177
349 350 350 351 351 347 345 346 346 345 343 343 343 342 338 333 331 328 322 315 308 302 302 297 268 212 233 266 275 261 226 229 234 226 217 215 213 206 205 208 210 210 211 218 222 221 219 219 224 232 233 234 244 250 250 243 230 234 232 226 228 235 248 242 228 218 214 205 207 223 236 229 250 200 173 165 168 167 164 159 162 171 168 167 172 174 177 178
349 349 349 351 351 347 345 346 347 346 346 346 347 345 335 328 333 332 323 318 307 289 277 289 271 236 256 276 285 256 217 220 226 219 215 214 210 208 204 204 208 209 211 216 220 223 219 218 221 227 233 231 234 241 248 246 227 220 229 228 224 224 238 243 226 209 207 205 205 217 231 220 278 204 166 167 173 173 170 164 165 171 167 168 172 175 178 178
350 350 350 351 352 349 346 347 348 348 349 351 351 350 337 330 336 334 323 330 334 296 231 221 285 267 254 262 273 236 217 218 219 212 212 211 209 211 202 200 206 206 209 213 217 224 218 215 218 221 230 230 224 226 231 237 227 214 218 227 228 224 232 237 227 206 198 203 208 211 226 213 179 174 172 174 176 181 178 163 162 161 165 177 175 173 179 177
350 350 350 351 352 351 347 348 349 350 354 356 359 358 349 344 343 341 332 339 354 339 251 224 222 253 250 247 248 239 225 216 213 210 207 205 206 210 203 200 202 200 205 210 213 219 215 211 215 216 222 224 221 218 218 223 225 219 211 220 226 223 232 230 224 206 193 202 208 209 218 198 169 194 206 194 185 187 177 160 165 167 167 179 175 173 182 180
350 349 349 349 352 352 349 349 350 354 359 3 11 11 1 352 346 354 46 343 312 272 275 223 198 232 293 276 250 245 254 222 204 205 202 198 201 205 204 199 200 200 201 205 204 208 209 204 211 218 215 215 217 218 221 223 228 232 221 220 224 222 232 232 221 200 194 207 208 213 219 186 173 199 208 207 199 194 180 163 165 177 176 174 175 178 184 183
350 349 348 347 350 352 349 349 353 0 5 7 11 10 5 358 348 351 358 309 281 272 281 273 239 249 278 287 276 244 242 222 198 201 199 193 194 199 200 196 198 201 203 205 197 200 208 209 212 217 215 214 217 221 228 228 231 241 235 225 224 223 232 232 220 197 194 211 209 212 222 200 186 192 199 203 201 199 192 166 158 175 181 172 177 185 184 185
349 348 348 348 348 351 351 350 357 5 9 10 6 6 8 3 351 325 323 305 285 274 269 270 263 258 261 268 271 260 247 232 203 202 199 190 191 195 194 193 196 201 204 207 198 195 209 221 218 215 215 217 218 220 226 230 231 239 246 241 230 224 227 226 218 198 196 213 213 209 222 220 202 191 191 196 198 204 211 182 158 169 180 177 181 185 183 184
349 347 348 349 346 350 352 349 360 7 5 6 1 3 5 354 338 317 314 300 288 280 264 262 262 259 258 258 260 264 270 253 211 202 196 187 191 195 187 189 199 201 196 203 202 195 209 227 221 213 214 219 221 219 220 228 230 232 243 251 245 233 226 220 211 197 198 216 217 209 218 230 221 206 197 196 197 202 217 213 169 164 175 181 181 178 179 182
348 347 348 349 345 348 353 348 358 5 358 353 352 357 354 339 330 320 308 293 288 282 263 252 248 246 249 248 248 251 254 244 216 202 194 188 194 197 189 188 201 202 194 201 205 198 209 223 220 214 214 216 222 222 217 223 229 229 233 239 246 244 236 223 200 189 195 215 221 212 213 226 228 222 216 212 209 204 212 219 191 171 173 178 178 176 178 183
347 346 346 348 344 344 353 354 354 0 352 345 348 351 347 334 331 329 313 289 279 279 266 250 238 233 235 235 234 234 233 231 224 206 192 191 196 197 197 194 198 205 199 202 209 213 219 217 210 213 216 216 219 223 218 217 223 227 231 231 236 242 245 251 214 185 190 210 217 218 218 221 224 224 222 219 218 216 214 213 210 190 172 169 173 175 179 184
346 345 344 348 345 340 351 7 351 352 353 352 351 344 341 335 331 330 316 291 272 274 267 248 232 231 230 225 220 219 224 227 226 212 194 195 197 194 200 199 199 210 203 203 211 220 225 217 205 208 215 217 218 220 219 218 219 223 227 232 236 237 238 249 239 201 189 208 212 214 227 223 220 226 225 217 212 216 217 206 207 202 168 162 170 174 179 184
345 344 342 347 347 339 348 3 348 351 356 348 346 340 336 335 330 327 315 289 278 266 242 206 201 218 215 207 202 202 218 226 221 218 202 197 198 197 201 199 202 213 206 203 213 224 227 221 213 208 210 215 219 221 218 217 222 224 221 225 234 241 239 241 242 225 199 202 203 206 227 232 217 225 226 224 220 213 217 207 200 198 165 159 169 174 179 184
345 343 341 345 349 342 343 350 351 357 352 337 338 336 332 331 331 328 313 273 274 227 149 159 166 178 193 193 185 183 208 213 209 220 210 195 197 202 208 203 200 210 207 203 214 218 217 219 219 211 208 211 216 220 215 214 223 227 221 218 223 235 241 242 245 242 223 206 201 201 216 235 228 224 220 222 226 219 218 212 197 189 168 164 174 175 178 184
344 342 339 341 348 348 340 343 350 350 337 333 332 329 328 326 324 320 296 278 305 98 110 130 131 106 196 188 182 188 208 178 187 214 211 197 194 201 213 213 206 206 205 208 215 210 208 216 220 213 210 211 214 216 211 213 223 226 226 225 219 223 234 243 250 253 248 238 221 201 201 222 235 223 216 216 220 221 220 214 200 187 173 171 181 181 179 185
343 341 337 337 344 352 342 333 335 329 326 328 326 325 325 319 312 299 250 270 305 13 103 158 136 172 197 181 187 200 215 205 189 198 202 201 196 199 217 217 215 212 209 219 225 215 209 213 219 220 216 213 213 214 210 212 221 220 224 235 230 220 221 229 240 249 251 253 250 222 205 214 230 215 211 213 215 218 217 215 205 190 179 175 181 184 181 182
343 340 336 337 341 350 348 323 317 323 325 324 324 324 320 310 293 258 236 243 284 344 15 137 88 140 191 184 193 206 216 227 228 187 192 200 195 201 217 217 221 225 214 222 228 229 225 210 212 224 225 214 212 215 211 213 218 212 216 231 236 229 220 219 227 235 243 242 244 243 235 237 242 220 212 209 208 215 215 212 206 191 184 186 186 182 176 178
342 339 337 343 348 351 351 328 323 330 327 324 325 322 312 297 265 238 243 274 303 341 359 10 10 356 274 223 204 206 213 229 240 199 190 196 191 198 213 211 219 227 218 220 222 229 233 218 205 215 224 219 208 213 213 210 214 211 207 217 224 227 225 223 216 215 233 233 225 236 244 248 247 235 229 212 197 207 213 211 208 192 183 195 196 179 170 176
340 338 338 352 359 354 343 326 327 329 326 324 323 319 307 281 246 229 254 296 309 355 3 350 347 342 319 298 252 215 208 219 238 224 194 193 192 195 206 206 202 210 216 215 209 216 227 230 218 204 215 220 208 206 211 205 205 206 204 208 211 210 209 214 211 210 229 236 224 224 229 238 243 240 244 237 206 203 211 212 213 197 184 193 193 175 170 178
339 338 345 3 357 344 323 319 324 323 324 325 318 308 295 273 260 255 267 281 327 353 349 343 335 328 317 307 281 232 209 202 224 230 206 195 199 197 205 213 207 206 217 210 204 208 212 225 226 210 203 213 213 202 202 201 194 199 204 201 203 208 202 201 209 220 229 231 228 225 223 233 242 235 235 241 234 218 212 206 211 204 190 187 182 179 180 180
340 339 350 354 345 333 319 323 324 323 324 324 315 299 281 268 269 278 283 304 345 346 343 344 332 319 309 292 284 269 232 202 208 223 212 196 203 204 203 212 214 214 219 213 208 209 209 212 217 216 196 195 210 212 202 198 190 197 206 205 212 215 203 201 207 217 229 228 221 221 223 231 236 227 223 231 232 233 229 212 208 201 186 182 181 187 190 178
343 344 347 337 331 332 331 327 324 326 326 322 315 299 280 273 276 303 332 343 347 344 339 334 320 309 304 286 277 274 261 226 206 215 218 205 206 209 204 208 213 214 213 214 210 207 218 219 206 214 209 191 201 210 206 202 194 195 201 207 217 212 202 214 216 214 222 229 217 213 222 232 242 246 230 226 222 223 228 224 217 194 174 178 185 187 190 181
346 351 349 332 315 330 333 329 327 325 327 329 326 305 287 297 328 358 359 345 340 339 335 329 319 301 291 283 270 258 283 286 230 214 216 217 217 215 213 208 209 213 214 213 215 207 218 223 200 204 212 204 198 198 206 211 196 185 198 209 211 206 212 226 224 217 217 226 221 211 223 222 231 246 230 225 228 218 215 216 227 205 172 177 187 183 186 190
347 345 338 313 301 331 334 330 327 318 318 328 318 309 306 311 330 346 347 338 335 333 330 327 325 313 301 301 297 309 342 334 279 242 214 212 223 220 218 215 206 212 219 220 226 221 220 224 200 198 206 206 194 191 206 219 211 190 194 202 202 205 217 228 237 228 216 227 224 212 225 217 207 228 217 213 222 223 219 208 215 221 188 181 186 180 183 193
346 335 321 297 308 333 335 326 322 313 308 311 301 304 308 311 325 335 333 330 331 331 328 318 315 317 314 317 320 329 341 336 313 301 241 209 216 217 220 223 210 210 216 223 234 228 224 232 207 199 201 195 185 189 205 217 219 219 198 188 197 205 203 206 229 233 219 228 226 214 228 222 206 209 202 209 210 209 226 217 206 217 206 191 187 178 180 188
342 325 314 1 340 336 336 317 312 309 297 300 313 318 317 310 320 329 329 330 331 330 322 315 316 313 309 316 320 323 328 320 319 323 284 235 218 205 259 280 233 219 213 214 227 235 229 236 215 197 193 185 179 190 202 206 213 225 212 191 201 211 199 198 215 231 228 224 220 221 230 233 227 204 188 204 203 195 216 225 210 210 203 198 187 171 173 182
337 314 325 30 356 341 332 307 294 295 294 310 316 315 327 324 321 323 326 331 331 325 318 315 315 307 306 319 320 320 330 323 316 315 302 306 351 51 27 3 335 313 257 223 225 230 231 240 233 198 188 188 188 193 198 198 200 212 215 198 195 202 202 203 208 219 234 232 219 219 224 232 235 208 191 198 190 182 200 217 214 209 200 198 184 167 170 179
327 296 319 358 352 345 330 303 285 295 298 316 318 316 330 327 316 317 322 327 323 316 315 310 305 302 306 318 323 325 326 318 315 309 303 328 347 9 11 355 345 340 323 276 230 219 222 237 233 216 198 197 197 193 196 202 201 201 210 205 196 195 198 206 207 207 220 238 239 231 235 249 244 199 187 181 171 169 188 207 202 203 203 195 186 178 175 178
321 298 312 328 341 343 327 301 311 336 299 326 334 319 324 321 312 317 323 324 321 315 309 303 301 304 305 308 319 327 319 308 309 303 308 336 331 326 350 349 337 324 309 300 252 225 225 235 229 229 230 210 194 189 194 204 208 204 208 211 202 196 199 208 208 196 204 223 236 247 247 306 33 42 149 144 152 163 180 198 186 201 215 195 188 193 180 174
325 311 304 317 353 340 321 300 331 326 309 338 337 318 320 322 315 319 323 322 321 317 309 307 307 305 308 312 313 319 317 308 300 299 315 330 319 318 337 340 330 322 318 322 295 239 228 236 227 230 252 223 191 186 192 203 210 209 206 209 210 202 199 209 213 200 203 209 213 231 232 162 69 32 80 95 127 162 174 189 179 194 224 198 184 190 175 166
319 302 295 328 10 340 316 314 333 324 319 332 329 318 321 321 319 326 327 327 329 319 308 310 313 310 309 309 301 304 313 306 300 322 330 329 317 316 326 335 330 319 328 352 340 304 254 236 221 222 255 226 190 182 189 199 210 217 205 202 212 210 198 202 213 208 208 206 202 213 221 164 109 104 94 93 172 186 166 180 183 183 213 209 182 173 161 158
316 304 300 329 347 331 313 318 322 320 321 323 320 319 322 319 328 334 323 321 330 329 322 316 312 309 303 299 296 296 303 296 302 336 348 339 322 314 324 336 327 305 323 341 324 314 302 261 238 225 225 214 195 189 195 193 199 219 212 198 205 214 204 196 203 208 205 198 198 211 220 158 122 114 113 135 195 203 154 171 183 151 140 157 137 143 153 158
312 312 317 331 333 322 301 307 316 318 319 323 320 317 321 321 330 331 317 321 348 344 328 316 311 308 304 306 305 298 305 307 313 350 349 331 325 317 325 330 320 316 339 330 302 297 300 276 268 244 229 226 191 173 199 200 193 209 216 201 197 210 212 199 196 209 201 186 197 212 201 148 136 146 172 170 183 182 154 167 163 105 87 72 81 102 126 147
312 314 325 335 330 315 306 316 321 316 312 319 312 302 316 327 332 327 312 321 354 346 325 316 318 315 312 317 312 303 318 328 339 357 337 326 332 323 323 323 315 333 348 327 278 287 299 270 264 247 241 246 228 83 306 235 207 204 213 208 195 201 212 207 198 199 188 185 198 184 159 159 161 169 178 164 150 145 153 160 133 98 95 98 100 104 110 125
320 315 318 328 326 310 318 320 312 308 311 313 300 295 311 314 306 313 320 327 338 343 340 323 319 312 310 316 317 311 325 337 345 352 338 332 336 327 327 324 318 340 349 325 280 322 305 274 269 248 244 246 238 246 299 306 271 216 211 211 198 195 207 210 203 196 188 194 197 163 152 167 162 152 149 142 133 118 128 139 119 98 97 109 118 124 123 122
323 312 312 327 326 308 306 306 305 310 314 307 297 300 306 299 296 311 321 318 317 327 335 308 306 310 309 311 312 311 327 336 329 335 335 328 328 326 327 321 320 339 342 323 317 2 328 278 278 255 245 246 245 246 248 282 311 275 220 211 202 196 202 208 208 200 190 198 201 171 161 162 138 138 142 138 139 127 103 104 114 112 116 129 130 132 134 131
322 314 313 322 316 301 299 304 309 310 304 301 302 300 289 287 303 318 314 316 322 317 304 296 307 317 312 307 308 307 320 320 297 298 309 310 317 325 321 311 315 328 331 329 348 354 328 276 277 270 254 247 247 251 248 249 279 288 251 214 202 197 198 203 210 206 191 194 202 183 170 168 148 154 160 142 135 128 105 104 121 116 116 135 142 138 143 145
310 308 311 314 304 294 299 306 308 299 296 307 304 295 290 294 312 320 316 329 329 299 300 309 312 310 301 298 302 308 315 308 287 286 291 288 292 296 292 294 304 313 322 332 340 336 325 293 269 263 256 254 250 243 237 230 244 276 278 224 202 198 198 196 204 211 195 185 196 192 181 173 148 144 149 137 117 103 94 113 123 85 71 109 137 126 133 145
308 312 316 313 297 287 296 304 304 297 302 313 299 297 301 302 308 310 308 314 279 271 288 298 293 290 294 298 302 309 312 304 292 287 282 275 274 271 269 279 288 295 307 321 326 327 333 331 300 269 255 253 254 240 225 220 232 260 282 239 208 206 208 197 198 212 206 192 195 195 179 174 171 157 148 139 132 120 101 102 96 72 62 72 95 78 55 112
Height
1514 1512 1511 1509 1507 1506 1504 1503 1502 1500 1499 1497 1496 1494 1492 1491 1490 1489 1487 1486 1486 1485 1485 1484 1483 1482 1482 1481 1480 1479 1478 1477 1476 1476 1471 1466 1469 1472 1472 1473 1474 1475 1477 1478 1481 1482 1483 1484 1486 1487 1489 1489 1488 1487 1486 1486 1485 1487 1492 1502 1508 1503 1495 1486 1483 1482 1476 1469 1460 1455 1455 1459 1462 1461 1465 1469 1472 1475 1477 1480 1481 1483 1487 1490 1494 1498 1501 1505
1514 1513 1511 1509 1507 1505 1504 1502 1500 1499 1498 1496 1494 1493 1491 1489 1489 1488 1486 1484 1483 1483 1483 1482 1482 1481 1480 1480 1479 1478 1477 1475 1474 1470 1464 1464 1468 1469 1470 1471 1472 1474 1475 1476 1478 1480 1482 1482 1484 1486 1486 1485 1484 1484 1483 1482 1482 1483 1489 1502 1508 1499 1487 1481 1480 1477 1474 1472 1461 1455 1457 1458 1461 1460 1465 1473 1474 1476 1478 1482 1484 1484 1488 1492 1495 1499 1502 1505
1515 1513 1511 1509 1507 1505 1504 1502 1500 1498 1497 1495 1493 1491 1489 1487 1487 1486 1485 1483 1481 1481 1481 1481 1480 1479 1479 1478 1478 1477 1475 1474 1470 1462 1458 1463 1466 1466 1468 1469 1470 1472 1473 1474 1477 1479 1480 1481 1483 1484 1484 1483 1481 1481 1480 1479 1479 1478 1485 1497 1498 1487 1481 1480 1480 1478 1478 1477 1463 1457 1458 1457 1460 1460 1465 1473 1476 1481 1482 1484 1487 1488 1490 1493 1496 1499 1502 1505
1515 1513 1511 1509 1507 1505 1503 1501 1499 1498 1496 1494 1492 1490 1488 1486 1485 1484 1483 1482 1480 1479 1478 1479 1479 1478 1478 1477 1477 1476 1475 1473 1465 1456 1456 1460 1462 1464 1466 1467 1469 1471 1472 1474 1476 1479 1480 1481 1482 1482 1482 1480 1478 1477 1476 1476 1476 1474 1479 1486 1484 1480 1481 1481 1479 1478 1478 1482 1472 1459 1460 1462 1460 1460 1465 1471 1480 1487 1485 1484 1488 1489 1490 1493 1496 1499 1502 1505
1514 1512 1511 1509 1507 1505 1503 1501 1498 1497 1495 1493 1491 1489 1487 1485 1483 1482 1481 1480 1479 1477 1476 1477 1477 1477 1476 1475 1476 1475 1476 1473 1460 1454 1456 1457 1460 1462 1464 1466 1468 1469 1471 1473 1475 1478 1479 1479 1480 1480 1479 1477 1475 1475 1472 1472 1472 1472 1473 1472 1472 1476 1481 1479 1477 1478 1476 1481 1476 1463 1467 1470 1460 1459 1464 1468 1477 1483 1482 1483 1487 1489 1492 1492 1496 1499 1502 1505
1514 1512 1510 1508 1506 1504 1502 1500 1498 1496 1494 1492 1490 1487 1485 1484 1482 1480 1479 1478 1477 1476 1475 1475 1475 1475 1474 1474 1474 1474 1475 1468 1457 1456 1457 1456 1458 1460 1462 1465 1467 1469 1471 1472 1474 1475 1476 1476 1477 1476 1476 1475 1473 1471 1469 1468 1469 1473 1471 1464 1465 1470 1474 1476 1475 1475 1473 1473 1472 1467 1469 1466 1459 1460 1462 1464 1472 1477 1480 1483 1485 1488 1492 1493 1496 1499 1501 1504
1514 1512 1510 1508 1506 1503 1501 1499 1497 1495 1493 1491 1488 1486 1484 1482 1481 1479 1477 1476 1475 1474 1473 1473 1473 1473 1473 1473 1472 1473 1472 1462 1455 1457 1457 1457 1459 1458 1461 1463 1465 1468 1469 1471 1472 1473 1473 1473 1473 1473 1473 1474 1471 1468 1465 1464 1464 1469 1470 1462 1461 1464 1465 1469 1470 1471 1469 1465 1464 1464 1463 1458 1458 1463 1462 1465 1471 1476 1480 1482 1484 1488 1491 1494 1496 1499 1501 1503
1514 1512 1509 1507 1505 1502 1501 1498 1496 1494 1491 1489 1487 1485 1482 1481 1479 1477 1476 1475 1473 1472 1472 1471 1471 1471 1471 1472 1471 1471 1466 1455 1454 1458 1457 1458 1459 1459 1460 1461 1463 1465 1467 1469 1470 1470 1471 1470 1471 1470 1471 1471 1469 1465 1463 1463 1462 1464 1466 1461 1458 1460 1461 1463 1464 1466 1465 1462 1460 1460 1458 1456 1458 1461 1461 1465 1471 1474 1478 1481 1484 1487 1490 1493 1496 1498 1501 1503
1513 1511 1509 1507 1504 1502 1499 1497 1495 1493 1490 1488 1485 1483 1481 1479 1477 1476 1475 1473 1472 1471 1470 1470 1469 1469 1470 1470 1471 1469 1457 1450 1454 1456 1457 1458 1459 1459 1460 1460 1461 1462 1465 1467 1468 1469 1468 1468 1468 1468 1468 1467 1466 1463 1459 1463 1464 1459 1459 1459 1457 1458 1457 1459 1461 1460 1460 1460 1460 1459 1457 1456 1455 1459 1461 1463 1469 1473 1476 1480 1483 1486 1489 1492 1495 1498 1500 1502
1513 1510 1508 1506 1503 1501 1498 1496 1494 1491 1489 1486 1484 1482 1479 1477 1476 1474 1473 1471 1470 1469 1468 1468 1467 1468 1468 1468 1470 1464 1451 1451 1455 1453 1455 1457 1457 1458 1459 1459 1460 1461 1463 1465 1466 1466 1466 1466 1466 1467 1467 1464 1463 1461 1456 1458 1459 1454 1455 1456 1455 1456 1454 1455 1456 1456 1459 1460 1459 1459 1459 1456 1453 1458 1462 1461 1466 1472 1475 1480 1483 1486 1489 1491 1494 1496 1498 1501
1512 1510 1508 1505 1503 1500 1497 1495 1492 1490 1487 1485 1482 1480 1478 1476 1474 1472 1471 1470 1469 1468 1467 1466 1466 1466 1466 1467 1467 1457 1450 1453 1454 1452 1455 1456 1455 1457 1458 1459 1459 1460 1462 1464 1464 1464 1465 1465 1466 1467 1466 1463 1461 1459 1455 1453 1452 1451 1453 1456 1455 1454 1453 1453 1452 1453 1456 1458 1457 1456 1457 1456 1454 1456 1458 1457 1462 1468 1473 1480 1483 1486 1488 1490 1493 1495 1498 1500
1512 1509 1507 1505 1502 1499 1496 1494 1491 1489 1486 1484 1481 1478 1476 1474 1472 1470 1469 1468 1467 1466 1465 1465 1465 1464 1465 1465 1457 1449 1450 1453 1454 1454 1454 1454 1455 1455 1457 1459 1459 1459 1461 1462 1462 1463 1464 1465 1465 1465 1463 1463 1462 1459 1455 1451 1451 1449 1451 1459 1458 1454 1454 1452 1450 1451 1452 1455 1454 1455 1462 1462 1456 1454 1453 1455 1461 1464 1471 1478 1482 1485 1488 1490 1491 1494 1497 1500
1511 1509 1506 1504 1501 1498 1495 1493 1490 1487 1485 1482 1479 1477 1475 1472 1471 1469 1467 1466 1465 1465 1464 1463 1463 1462 1464 1459 1447 1446 1450 1450 1452 1454 1453 1454 1455 1454 1456 1458 1459 1460 1461 1461 1461 1462 1464 1464 1464 1463 1461 1461 1458 1457 1453 1448 1450 1450 1450 1457 1461 1461 1459 1450 1447 1449 1449 1452 1450 1456 1473 1471 1455 1450 1449 1453 1458 1461 1467 1474 1479 1483 1486 1489 1491 1493 1495 1498
1511 1508 1506 1503 1501 1497 1494 1492 1489 1486 1483 1481 1478 1476 1473 1471 1469 1467 1465 1464 1463 1463 1462 1462 1461 1462 1462 1451 1442 1446 1448 1448 1450 1451 1452 1453 1453 1454 1455 1457 1458 1459 1460 1461 1461 1461 1462 1463 1463 1462 1461 1459 1456 1455 1452 1448 1451 1452 1453 1457 1462 1468 1464 1448 1443 1447 1449 1451 1447 1455 1474 1469 1451 1446 1446 1451 1455 1459 1464 1470 1477 1481 1483 1487 1489 1492 1494 1496
1511 1508 1505 1503 1500 1497 1494 1491 1488 1485 1482 1479 1477 1474 1471 1470 1468 1466 1465 1462 1462 1461 1460 1461 1460 1461 1459 1448 1441 1443 1444 1445 1445 1446 1449 1450 1451 1452 1453 1455 1457 1457 1459 1460 1460 1460 1461 1462 1462 1460 1458 1458 1457 1457 1455 1453 1450 1452 1461 1465 1462 1465 1463 1448 1439 1441 1447 1448 1443 1454 1469 1463 1451 1444 1443 1450 1453 1456 1462 1467 1474 1478 1480 1484 1486 1490 1493 1494
1511 1508 1505 1502 1499 1496 1493 1490 1487 1484 1481 1478 1475 1473 1470 1468 1466 1465 1463 1460 1460 1459 1459 1460 1459 1460 1458 1446 1440 1440 1440 1440 1440 1443 1446 1447 1449 1449 1451 1454 1455 1456 1457 1458 1458 1459 1459 1459 1459 1458 1457 1457 1457 1459 1461 1460 1455 1452 1460 1465 1461 1461 1464 1453 1438 1432 1439 1445 1444 1451 1463 1462 1453 1444 1442 1448 1452 1455 1459 1464 1472 1476 1479 1483 1485 1487 1490 1493
1511 1508 1505 1502 1500 1496 1493 1490 1487 1483 1480 1477 1474 1471 1469 1467 1465 1463 1461 1460 1459 1458 1459 1459 1459 1461 1452 1440 1437 1437 1436 1436 1438 1441 1443 1444 1447 1447 1449 1451 1452 1454 1455 1457 1458 1456 1456 1455 1456 1457 1455 1454 1453 1458 1467 1470 1464 1455 1454 1459 1457 1456 1460 1455 1442 1430 1431 1443 1447 1448 1455 1457 1451 1444 1443 1447 1451 1454 1458 1462 1469 1473 1478 1482 1484 1486 1488 1490
1510 1507 1504 1502 1499 1496 1493 1490 1486 1483 1480 1477 1474 1470 1468 1466 1464 1462 1460 1460 1458 1458 1459 1457 1461 1461 1444 1434 1436 1434 1433 1435 1435 1438 1440 1442 1444 1445 1447 1448 1449 1452 1453 1454 1454 1453 1453 1451 1452 1455 1454 1453 1452 1454 1464 1466 1459 1454 1454 1457 1455 1453 1454 1450 1443 1432 1431 1441 1448 1450 1453 1453 1450 1446 1445 1446 1449 1453 1456 1461 1467 1470 1475 1479 1481 1485 1488 1489
1509 1506 1504 1501 1499 1496 1492 1489 1486 1483 1480 1477 1474 1470 1467 1465 1462 1460 1460 1461 1460 1459 1456 1454 1456 1450 1434 1430 1434 1432 1432 1433 1433 1435 1437 1439 1442 1443 1444 1446 1447 1449 1450 1451 1450 1448 1448 1449 1452 1454 1453 1452 1449 1448 1452 1452 1449 1448 1447 1449 1452 1452 1448 1439 1434 1428 1429 1441 1447 1449 1451 1452 1453 1450 1446 1446 1447 1450 1453 1459 1466 1468 1471 1475 1478 1482 1486 1488
1508 1506 1503 1500 1498 1495 1492 1489 1486 1484 1480 1477 1473 1469 1468 1466 1462 1460 1461 1462 1461 1456 1451 1449 1450 1442 1432 1430 1431 1431 1432 1431 1432 1433 1434 1436 1439 1441 1441 1443 1444 1445 1445 1446 1446 1444 1445 1451 1451 1448 1447 1445 1444 1443 1443 1443 1443 1442 1441 1441 1442 1445 1443 1433 1429 1425 1426 1441 1447 1445 1447 1449 1451 1449 1445 1446 1446 1447 1450 1455 1463 1466 1469 1472 1475 1479 1484 1486
1508 1505 1503 1499 1497 1495 1492 1489 1487 1484 1481 1478 1474 1472 1473 1473 1470 1466 1462 1456 1453 1454 1449 1444 1445 1440 1434 1430 1427 1430 1432 1430 1430 1430 1432 1435 1436 1437 1437 1438 1441 1442 1440 1439 1441 1442 1445 1449 1443 1439 1440 1439 1439 1439 1441 1442 1442 1442 1441 1439 1435 1436 1436 1427 1425 1425 1424 1438 1446 1441 1445 1446 1443 1443 1443 1443 1445 1446 1446 1448 1457 1463 1465 1469 1473 1477 1482 1484
1508 1505 1502 1499 1496 1494 1492 1489 1487 1485 1482 1480 1478 1478 1478 1478 1477 1474 1468 1453 1441 1445 1445 1439 1439 1434 1430 1430 1425 1428 1432 1428 1427 1427 1429 1432 1433 1432 1431 1433 1437 1437 1436 1437 1440 1444 1447 1441 1433 1432 1433 1434 1436 1435 1439 1442 1441 1443 1442 1441 1438 1431 1428 1425 1422 1423 1425 1438 1444 1441 1446 1447 1438 1436 1437 1438 1441 1445 1446 1446 1450 1458 1461 1465 1470 1473 1477 1481
1508 1504 1502 1499 1495 1494 1491 1489 1487 1484 1482 1481 1481 1481 1480 1479 1478 1475 1472 1458 1436 1432 1436 1431 1429 1426 1424 1426 1424 1426 1429 1424 1422 1422 1425 1427 1427 1427 1427 1429 1433 1433 1434 1436 1438 1443 1443 1433 1427 1428 1429 1433 1436 1433 1436 1440 1440 1441 1441 1444 1442 1429 1427 1430 1424 1422 1426 1433 1439 1440 1445 1445 1438 1436 1435 1434 1435 1440 1445 1444 1445 1452 1456 1459 1464 1469 1472 1476
1507 1504 1501 1498 1495 1492 1490 1489 1486 1485 1483 1483 1483 1481 1480 1479 1477 1473 1469 1459 1436 1421 1420 1418 1417 1417 1414 1417 1421 1422 1423 1421 1418 1417 1420 1423 1422 1424 1424 1425 1429 1431 1430 1431 1432 1434 1431 1424 1421 1425 1427 1430 1435 1434 1433 1439 1441 1439 1436 1439 1438 1429 1427 1426 1420 1419 1425 1430 1431 1438 1450 1449 1441 1442 1439 1432 1432 1435 1438 1440 1442 1446 1451 1455 1460 1464 1468 1471
1507 1504 1501 1498 1495 1490 1490 1489 1486 1486 1484 1482 1483 1481 1480 1478 1476 1474 1468 1457 1436 1411 1405 1407 1407 1406 1405 1411 1417 1416 1419 1418 1414 1414 1415 1417 1418 1420 1420 1421 1425 1428 1426 1426 1429 1429 1424 1417 1417 1423 1426 1426 1431 1433 1430 1433 1439 1439 1433 1430 1430 1428 1426 1423 1419 1420 1435 1444 1433 1436 1461 1461 1443 1442 1441 1433 1432 1434 1433 1435 1439 1442 1447 1453 1458 1461 1464 1468
1507 1504 1500 1498 1495 1490 1489 1488 1486 1486 1483 1483 1483 1480 1481 1477 1475 1475 1468 1460 1437 1404 1394 1399 1398 1396 1398 1405 1409 1414 1419 1413 1409 1412 1411 1413 1416 1416 1419 1417 1417 1421 1421 1422 1425 1424 1418 1413 1413 1418 1423 1425 1428 1429 1425 1426 1436 1439 1429 1423 1425 1425 1425 1425 1422 1424 1440 1449 1433 1430 1458 1465 1449 1442 1439 1433 1434 1434 1431 1432 1434 1439 1446 1451 1455 1458 1461 1465
1506 1504 1501 1499 1496 1492 1490 1488 1487 1485 1484 1485 1482 1480 1480 1476 1476 1474 1469 1464 1432 1393 1389 1395 1394 1393 1393 1397 1402 1410 1414 1405 1405 1409 1405 1410 1414 1413 1416 1414 1414 1416 1412 1417 1425 1418 1412 1413 1412 1413 1418 1423 1426 1426 1420 1420 1432 1434 1420 1417 1423 1425 1427 1426 1424 1425 1427 1431 1429 1427 1442 1458 1456 1443 1433 1431 1435 1435 1432 1431 1430 1434 1442 1448 1451 1455 1458 1461
1506 1504 1501 1498 1497 1495 1492 1489 1487 1486 1487 1486 1482 1482 1479 1476 1477 1473 1475 1470 1422 1383 1390 1395 1394 1395 1394 1396 1399 1400 1399 1395 1401 1403 1400 1406 1408 1409 1412 1408 1409 1412 1406 1413 1422 1411 1406 1411 1411 1410 1415 1419 1419 1417 1413 1416 1426 1424 1414 1413 1418 1422 1426 1425 1426 1427 1420 1426 1435 1428 1432 1454 1456 1437 1427 1428 1434 1436 1432 1428 1427 1428 1435 1442 1446 1450 1454 1458
1506 1503 1500 1498 1496 1495 1493 1491 1489 1488 1489 1485 1483 1482 1477 1477 1478 1471 1479 1470 1415 1385 1394 1394 1395 1398 1394 1396 1398 1396 1395 1392 1393 1395 1397 1402 1402 1404 1408 1405 1405 1408 1404 1406 1411 1407 1401 1403 1404 1405 1410 1412 1410 1407 1407 1413 1419 1415 1411 1413 1414 1416 1421 1425 1429 1431 1429 1437 1442 1429 1426 1445 1448 1432 1427 1429 1431 1432 1427 1422 1422 1422 1429 1437 1441 1445 1449 1453
1506 1503 1500 1497 1495 1494 1493 1491 1491 1490 1488 1485 1483 1481 1478 1478 1475 1474 1481 1459 1412 1394 1395 1393 1397 1399 1395 1398 1398 1397 1396 1392 1388 1389 1394 1396 1399 1402 1404 1404 1404 1404 1404 1402 1404 1402 1394 1393 1397 1398 1400 1400 1401 1402 1402 1406 1410 1409 1413 1418 1420 1418 1418 1423 1427 1431 1442 1448 1442 1429 1418 1429 1441 1432 1422 1423 1422 1421 1419 1419 1419 1418 1424 1432 1435 1440 1445 1449
1505 1503 1500 1498 1496 1494 1492 1492 1491 1489 1487 1486 1483 1480 1479 1474 1471 1476 1470 1436 1410 1406 1401 1400 1406 1404 1401 1401 1398 1396 1396 1394 1387 1386 1392 1393 1396 1401 1402 1405 1405 1405 1407 1404 1403 1401 1395 1394 1393 1392 1392 1391 1396 1402 1399 1400 1403 1407 1416 1423 1429 1430 1428 1431 1430 1434 1450 1451 1438 1428 1420 1428 1442 1433 1414 1408 1405 1406 1410 1414 1414 1414 1419 1426 1430 1436 1441 1446
1504 1502 1500 1498 1497 1494 1493 1492 1491 1489 1487 1486 1483 1480 1478 1474 1471 1469 1452 1427 1422 1421 1414 1416 1417 1412 1409 1403 1397 1393 1393 1396 1389 1383 1388 1390 1394 1398 1398 1399 1400 1408 1411 1404 1404 1404 1399 1394 1387 1387 1389 1386 1395 1405 1403 1401 1402 1410 1418 1425 1437 1443 1443 1446 1444 1441 1447 1444 1430 1425 1427 1432 1433 1421 1408 1401 1397 1398 1401 1403 1405 1406 1413 1420 1425 1431 1437 1441
1503 1501 1499 1498 1497 1495 1493 1492 1491 1490 1487 1485 1484 1479 1477 1479 1474 1460 1444 1433 1431 1426 1423 1426 1422 1416 1414 1406 1397 1389 1386 1391 1389 1383 1382 1386 1391 1393 1394 1392 1390 1399 1403 1399 1403 1405 1403 1397 1386 1386 1387 1382 1389 1402 1408 1406 1405 1412 1417 1424 1437 1442 1449 1459 1456 1450 1449 1440 1426 1420 1426 1431 1425 1412 1403 1398 1394 1392 1392 1395 1399 1401 1407 1415 1420 1427 1433 1436
1502 1500 1499 1497 1496 1494 1493 1493 1492 1490 1487 1485 1483 1478 1478 1482 1471 1453 1445 1442 1437 1433 1432 1432 1426 1419 1412 1405 1398 1389 1386 1386 1384 1383 1381 1383 1391 1391 1391 1391 1385 1388 1394 1397 1398 1398 1406 1403 1387 1382 1382 1380 1384 1390 1396 1398 1403 1409 1406 1414 1426 1426 1438 1455 1454 1452 1451 1440 1429 1424 1425 1428 1424 1410 1395 1390 1389 1387 1388 1390 1394 1398 1403 1411 1418 1424 1429 1432
1502 1500 1497 1495 1495 1494 1493 1494 1492 1489 1488 1484 1481 1480 1480 1476 1461 1453 1457 1457 1451 1446 1442 1436 1430 1423 1414 1405 1398 1390 1388 1386 1380 1381 1380 1380 1386 1387 1386 1387 1384 1384 1390 1396 1392 1387 1398 1395 1377 1373 1373 1374 1383 1382 1381 1390 1403 1404 1399 1409 1417 1411 1419 1434 1434 1433 1435 1435 1430 1424 1420 1414 1407 1396 1383 1383 1384 1383 1387 1387 1388 1393 1398 1407 1415 1420 1425 1428
1501 1499 1497 1496 1496 1495 1494 1493 1491 1489 1488 1484 1483 1483 1479 1471 1462 1465 1471 1467 1460 1455 1449 1441 1432 1427 1418 1406 1396 1390 1390 1389 1381 1380 1381 1380 1381 1380 1380 1380 1378 1380 1382 1387 1386 1383 1392 1388 1370 1370 1371 1367 1376 1379 1376 1385 1396 1399 1401 1407 1404 1397 1406 1423 1426 1417 1420 1434 1428 1416 1415 1409 1404 1398 1384 1382 1385 1382 1385 1387 1386 1389 1393 1402 1409 1413 1420 1423
1500 1498 1497 1496 1495 1495 1493 1492 1490 1489 1486 1484 1487 1486 1479 1473 1470 1473 1474 1469 1465 1461 1458 1452 1440 1434 1428 1416 1406 1401 1401 1399 1389 1382 1379 1380 1380 1376 1375 1374 1372 1374 1374 1377 1379 1374 1380 1383 1367 1366 1375 1368 1366 1375 1377 1374 1380 1392 1402 1400 1394 1397 1402 1414 1427 1424 1424 1435 1424 1410 1414 1412 1413 1411 1392 1384 1391 1388 1385 1385 1386 1387 1388 1394 1400 1406 1413 1417
1500 1497 1496 1495 1495 1493 1492 1491 1489 1488 1485 1483 1486 1485 1480 1476 1474 1474 1473 1470 1467 1463 1462 1460 1449 1441 1440 1435 1427 1420 1419 1416 1405 1394 1381 1374 1375 1372 1370 1371 1368 1367 1368 1372 1376 1368 1368 1381 1370 1358 1369 1368 1363 1377 1386 1377 1371 1379 1386 1385 1392 1409 1414 1415 1426 1430 1430 1435 1424 1411 1409 1404 1405 1404 1392 1389 1392 1390 1387 1384 1384 1386 1385 1388 1393 1400 1408 1412
1500 1496 1494 1493 1494 1492 1491 1490 1488 1487 1484 1481 1482 1481 1477 1476 1474 1474 1474 1471 1468 1467 1466 1463 1457 1451 1447 1445 1440 1432 1430 1427 1418 1414 1401 1379 1372 1371 1370 1372 1369 1365 1364 1366 1373 1367 1363 1377 1374 1355 1356 1365 1368 1379 1390 1386 1377 1374 1377 1380 1387 1399 1407 1411 1415 1417 1421 1429 1427 1419 1414 1405 1392 1383 1384 1387 1384 1385 1388 1385 1383 1383 1382 1385 1389 1395 1404 1409
1502 1499 1493 1492 1493 1491 1489 1488 1486 1484 1481 1478 1480 1478 1475 1474 1474 1473 1473 1471 1470 1469 1467 1465 1462 1458 1451 1449 1448 1441 1439 1437 1428 1424 1415 1391 1380 1380 1378 1379 1377 1371 1365 1364 1367 1367 1364 1372 1374 1359 1352 1363 1372 1373 1378 1383 1382 1381 1384 1386 1389 1391 1394 1402 1405 1404 1409 1419 1423 1423 1422 1406 1379 1365 1371 1377 1375 1378 1383 1383 1381 1379 1379 1383 1388 1393 1400 1405
1504 1499 1492 1491 1491 1490 1489 1484 1480 1479 1478 1476 1476 1476 1474 1475 1474 1472 1471 1471 1470 1469 1468 1466 1463 1459 1454 1453 1454 1451 1447 1444 1435 1429 1420 1406 1400 1396 1387 1384 1383 1377 1374 1370 1365 1365 1366 1370 1372 1366 1359 1362 1364 1360 1363 1370 1373 1378 1383 1383 1386 1390 1395 1407 1412 1403 1401 1409 1411 1415 1419 1400 1368 1355 1361 1366 1368 1372 1375 1378 1379 1377 1377 1381 1386 1392 1396 1400
1504 1498 1492 1492 1491 1491 1488 1480 1474 1476 1476 1474 1475 1475 1474 1475 1473 1472 1471 1471 1470 1469 1467 1465 1462 1459 1457 1455 1456 1458 1454 1445 1440 1435 1426 1418 1416 1406 1393 1389 1386 1380 1377 1375 1366 1359 1360 1364 1369 1368 1360 1353 1352 1353 1358 1363 1363 1368 1375 1374 1376 1383 1390 1405 1414 1405 1401 1405 1401 1403 1412 1398 1367 1353 1356 1360 1363 1368 1371 1374 1376 1377 1377 1378 1382 1388 1391 1396
1505 1499 1493 1491 1491 1491 1488 1479 1474 1475 1474 1474 1476 1476 1474 1474 1473 1472 1471 1470 1469 1468 1467 1465 1463 1459 1457 1456 1456 1459 1457 1447 1440 1437 1430 1424 1420 1409 1398 1395 1391 1383 1379 1378 1372 1362 1360 1365 1370 1371 1361 1347 1344 1349 1354 1358 1362 1368 1371 1369 1371 1376 1380 1388 1394 1394 1400 1405 1402 1408 1415 1401 1373 1359 1358 1360 1362 1365 1369 1372 1374 1377 1376 1375 1379 1383 1387 1394
1508 1500 1492 1490 1491 1491 1487 1482 1479 1479 1477 1477 1478 1477 1475 1474 1473 1472 1472 1471 1469 1469 1467 1465 1464 1461 1458 1458 1456 1456 1458 1452 1442 1438 1438 1433 1424 1413 1405 1401 1396 1389 1385 1386 1383 1377 1374 1372 1370 1377 1381 1368 1358 1361 1365 1363 1364 1367 1366 1366 1368 1369 1373 1381 1382 1386 1398 1400 1398 1410 1415 1397 1376 1367 1364 1366 1367 1367 1368 1370 1372 1375 1376 1375 1376 1380 1385 1391
1510 1500 1492 1490 1491 1491 1488 1485 1484 1483 1481 1481 1480 1478 1475 1474 1474 1474 1473 1472 1471 1470 1469 1466 1464 1462 1458 1457 1455 1453 1456 1455 1448 1444 1446 1443 1432 1418 1410 1408 1403 1393 1389 1390 1388 1385 1384 1376 1369 1378 1388 1380 1369 1370 1370 1367 1366 1365 1361 1362 1367 1367 1369 1379 1384 1392 1402 1398 1393 1403 1405 1391 1378 1374 1372 1373 1373 1371 1369 1371 1372 1375 1378 1377 1375 1380 1384 1387
1513 1503 1495 1492 1492 1491 1488 1485 1485 1484 1484 1484 1482 1479 1476 1475 1475 1475 1473 1472 1472 1472 1472 1469 1465 1462 1459 1457 1457 1454 1453 1454 1453 1453 1453 1449 1440 1427 1417 1414 1408 1397 1392 1391 1387 1384 1384 1379 1372 1372 1373 1367 1364 1362 1357 1357 1365 1369 1362 1360 1365 1367 1366 1372 1384 1393 1395 1395 1396 1395 1392 1391 1387 1382 1379 1376 1373 1373 1372 1373 1374 1376 1380 1381 1380 1383 1387 1390
1515 1507 1501 1499 1497 1491 1486 1485 1485 1484 1484 1486 1485 1480 1477 1477 1476 1476 1473 1472 1473 1473 1471 1469 1466 1465 1463 1460 1458 1457 1455 1455 1456 1459 1458 1453 1445 1436 1424 1417 1411 1402 1396 1390 1385 1383 1385 1381 1373 1368 1365 1361 1359 1358 1354 1354 1360 1363 1362 1360 1361 1365 1365 1369 1381 1385 1382 1393 1401 1389 1385 1394 1391 1382 1379 1376 1374 1374 1372 1372 1375 1378 1382 1386 1386 1387 1391 1395
1518 1512 1507 1506 1504 1497 1491 1489 1487 1484 1483 1485 1484 1480 1479 1479 1478 1477 1474 1471 1472 1473 1472 1470 1467 1466 1463 1461 1460 1460 1459 1460 1460 1461 1461 1457 1451 1443 1431 1420 1411 1405 1400 1392 1383 1382 1388 1385 1372 1365 1365 1361 1358 1357 1357 1357 1356 1355 1358 1358 1357 1363 1367 1369 1374 1374 1375 1389 1394 1383 1382 1390 1384 1376 1375 1373 1372 1373 1371 1371 1375 1379 1384 1387 1389 1390 1393 1397
1520 1517 1512 1509 1508 1503 1499 1494 1489 1485 1485 1485 1483 1480 1481 1480 1477 1476 1474 1471 1471 1472 1473 1473 1468 1464 1461 1459 1460 1462 1462 1463 1464 1462 1462 1460 1456 1451 1444 1431 1415 1408 1406 1396 1384 1383 1390 1386 1373 1366 1365 1363 1360 1358 1356 1359 1360 1357 1355 1353 1353 1358 1363 1366 1369 1368 1371 1380 1379 1376 1382 1383 1376 1374 1374 1370 1370 1372 1373 1375 1377 1381 1386 1389 1390 1391 1393 1398
1521 1519 1515 1513 1510 1506 1501 1496 1492 1489 1486 1485 1484 1482 1481 1480 1476 1474 1472 1472 1474 1473 1472 1470 1467 1464 1462 1458 1458 1460 1460 1461 1462 1461 1461 1461 1458 1455 1452 1443 1428 1419 1413 1403 1392 1390 1392 1387 1375 1369 1370 1368 1363 1360 1359 1361 1365 1363 1358 1351 1350 1355 1360 1365 1367 1365 1370 1378 1375 1375 1385 1385 1373 1370 1371 1370 1372 1374 1377 1380 1381 1384 1388 1389 1390 1392 1393 1397
1521 1520 1518 1516 1511 1505 1502 1498 1494 1491 1485 1484 1486 1483 1481 1478 1475 1475 1473 1472 1476 1476 1472 1469 1468 1466 1462 1457 1456 1458 1458 1458 1458 1457 1457 1457 1457 1456 1453 1446 1439 1432 1422 1412 1405 1398 1394 1388 1377 1374 1380 1377 1367 1365 1364 1361 1363 1366 1362 1351 1347 1353 1358 1362 1364 1363 1367 1376 1379 1380 1387 1385 1373 1368 1371 1373 1374 1378 1381 1383 1385 1387 1390 1392 1392 1393 1395 1398
1519 1517 1517 1517 1511 1505 1503 1499 1495 1491 1486 1484 1485 1482 1479 1476 1474 1476 1476 1473 1473 1474 1472 1470 1469 1466 1462 1458 1455 1456 1456 1456 1454 1453 1454 1454 1452 1453 1452 1447 1443 1440 1430 1422 1415 1406 1399 1397 1388 1384 1388 1382 1370 1366 1363 1364 1374 1378 1366 1351 1346 1350 1354 1357 1361 1362 1360 1367 1378 1383 1382 1377 1370 1369 1375 1379 1380 1384 1386 1387 1389 1392 1394 1396 1396 1397 1399 1400